Location: Unspecified
(0.0000°N, 0.0000°E)
Time: 22:48:18
(UTC+00:00)

SO-50 - Pass Details

Date: 09 December 2017
Orbit: 602 x 685 km, 64.6° (Epoch: 26 April)

Event Time Altitude Azimuth Distance (km) Brightness Sun altitude
Exits shadow 02:58:00 16° 123° (ESE) 1,771 ? -39.4°
Drops below altitude 10° 02:59:05 10° 130° (SE) 2,127 ? -39.2°
Sets 03:01:38 0° 140° (SE) 3,045 ? -38.7°
